Dewpoint
35 61 62 63 63 64 65 64 63 63 63 62 61 59 58 59 61 61 62 62 61 60 60 60 58 56 51 49 48 46 42 41 41 39 41 43 41 38 38 38 37 47 50
14 59 61 62 62 63 63 64 63 63 63 62 61 60 59 59 61 61 61 62 62 61 60 60 58 56 55 52 50 45 43 43 42 39 41 39 40 42 40 39 37 35 38
11 51 60 61 62 62 63 64 63 63 63 63 62 61 59 59 59 60 60 60 62 62 60 60 58 57 56 55 50 46 44 42 43 42 41 40 38 40 42 41 38 36 35
13 50 59 60 61 62 63 63 64 63 63 63 61 60 58 56 57 59 60 60 61 62 61 60 58 58 57 56 51 49 47 44 41 44 43 46 42 39 39 42 41 38 38
13 30 57 59 61 61 62 63 63 63 63 63 61 60 58 57 56 58 60 60 58 61 61 61 58 58 58 57 54 53 48 45 43 42 44 45 46 44 41 39 40 42 41
30 31 40 52 59 61 62 63 63 63 63 62 61 60 59 58 57 57 60 60 60 59 61 61 59 58 58 57 56 53 51 51 46 44 46 45 44 44 44 43 41 42 43
35 36 38 41 44 55 61 62 62 62 63 61 61 60 59 59 58 57 58 60 60 60 59 61 60 59 57 57 57 55 53 52 52 50 47 49 46 45 44 42 42 41 43
33 34 36 37 39 42 45 49 56 61 62 62 61 61 60 59 59 57 58 60 60 60 60 61 61 60 58 58 57 56 54 53 52 52 53 50 49 47 45 44 44 42 42
29 31 33 34 36 39 42 45 48 53 61 60 61 61 61 60 59 58 58 58 60 61 60 61 61 61 60 59 58 57 55 54 53 52 52 54 52 50 48 47 47 42 40
26 28 30 32 34 36 38 40 42 44 48 61 62 62 61 61 61 59 58 57 58 59 62 61 62 61 61 60 58 57 56 54 54 53 52 52 54 54 50 48 48 48 43
24 26 28 29 31 33 35 37 39 40 43 46 55 61 61 61 62 61 59 58 57 58 62 62 62 61 60 60 59 58 57 56 55 54 53 52 53 53 53 50 49 48 48
24 25 26 28 29 30 32 34 36 38 40 42 45 50 60 60 61 61 61 60 58 58 58 61 62 61 61 60 60 59 58 57 56 55 54 54 54 53 53 52 49 48 49
24 25 26 27 28 29 31 33 35 37 39 40 42 45 50 59 60 60 60 61 60 58 59 58 60 61 61 60 59 59 58 57 57 56 55 55 55 54 54 53 51 50 49
23 24 25 26 27 28 30 32 34 35 37 38 40 42 46 50 59 60 60 60 61 59 59 59 58 59 61 60 60 59 58 58 57 57 57 56 55 55 55 54 53 51 50
24 25 25 26 27 28 30 32 33 34 36 37 39 41 43 48 52 60 60 60 61 60 60 59 59 59 60 61 60 60 59 58 57 58 57 57 56 56 56 55 54 51 50
25 26 26 27 26 27 31 31 32 33 35 37 39 42 45 49 52 59 60 59 59 60 59 60 60 59 60 60 59 59 59 58 58 57 57 57 56 55 54 54 54 53 50
26 27 27 28 29 31 32 31 32 34 36 38 40 43 47 51 51 56 60 60 60 60 60 59 59 59 60 59 58 57 59 59 58 58 57 57 57 56 56 53 52 51 48
28 28 29 29 31 32 32 33 34 35 36 38 40 42 44 47 49 54 59 60 60 60 60 60 60 60 59 58 56 56 58 59 58 58 58 57 57 57 56 56 55 53 52
30 30 31 31 32 32 32 33 34 35 36 38 39 41 44 47 49 51 55 58 59 60 60 60 60 60 60 58 56 54 57 58 59 59 58 58 58 57 55 56 56 55 54
30 30 30 31 31 31 32 34 33 34 35 38 39 42 44 46 48 49 52 56 58 58 59 59 60 60 60 59 57 53 57 57 58 59 59 58 58 57 55 55 56 55 54
30 31 30 30 31 31 31 32 33 32 35 37 40 40 43 44 45 50 51 52 55 57 58 58 58 59 59 59 56 53 56 58 58 58 58 58 57 56 55 52 56 56 55
28 30 28 29 31 31 31 32 31 34 35 35 37 38 40 40 39 39 40 40 43 46 48 53 56 57 57 57 57 56 52 56 57 58 58 58 56 55 55 53 52 54 52
23 27 26 28 29 30 32 31 32 34 33 34 35 36 37 37 38 36 35 35 36 37 37 38 39 41 44 51 55 54 53 52 50 53 55 56 55 54 53 51 52 50 53
20 22 25 25 25 27 29 31 33 34 34 33 33 34 34 35 36 35 35 33 32 33 32 33 34 36 36 37 37 38 42 50 50 48 49 50 50 50 51 51 53 50 53
20 21 22 23 24 25 27 29 29 31 34 34 34 33 34 33 33 35 34 33 33 32 31 31 32 32 31 32 34 36 38 44 49 49 50 50 50 50 50 51 51 53 50
20 20 21 22 23 24 25 27 28 28 29 32 33 33 33 33 33 33 33 34 33 33 32 32 32 32 32 32 33 35 37 38 42 45 46 46 47 48 49 49 49 49 49
Wind_Speed
23 31 29 26 25 25 24 22 22 18 19 19 19 14 13 13 13 15 19 21 20 21 19 16 15 14 18 18 15 13 19 14 10 13 8 3 8 10 8 7 9 17 14
22 30 28 26 22 27 26 24 21 23 16 17 14 10 11 7 15 15 21 23 22 21 20 20 18 15 16 18 16 15 12 8 18 12 8 5 2 5 10 10 13 11 12
23 23 28 26 24 19 23 26 25 24 19 18 14 13 11 5 11 14 15 16 22 24 22 21 20 18 17 17 19 19 17 16 13 21 7 5 7 5 7 10 15 15 13
20 21 27 25 22 20 20 23 23 28 23 24 23 23 23 19 12 12 13 16 18 20 20 22 22 20 18 18 20 17 15 15 19 14 13 3 8 6 5 6 13 16 16
27 21 25 29 27 23 23 22 21 21 20 25 24 24 22 22 17 11 16 17 18 19 20 23 25 23 19 20 21 18 19 19 16 17 14 10 8 7 4 6 13 10 15
19 16 14 9 20 21 19 22 22 22 23 23 23 27 25 21 17 15 19 20 16 17 15 17 20 22 21 22 22 20 20 19 17 16 15 12 13 13 8 4 10 17 13
30 29 31 27 27 8 10 20 21 22 23 25 25 25 24 23 23 18 18 18 17 15 19 19 20 19 19 19 19 19 21 20 18 19 20 15 18 10 11 10 7 10 11
28 28 26 24 25 26 26 23 12 19 21 25 25 25 25 20 19 18 16 18 17 19 19 20 18 19 17 16 18 19 19 20 18 18 16 18 17 17 17 11 9 6 9
31 30 28 26 25 25 24 21 22 22 12 21 21 22 22 22 21 20 16 14 17 16 19 20 20 20 21 20 18 19 21 20 20 21 18 16 16 19 19 17 13 12 13
32 31 28 27 24 23 23 24 23 22 23 14 18 19 22 22 19 18 21 23 16 16 20 21 22 21 21 23 21 22 18 20 19 19 21 19 16 15 19 19 17 15 16
30 29 28 28 27 23 24 24 24 24 24 22 15 18 19 20 21 20 19 21 20 16 17 22 23 21 23 22 21 22 21 22 22 21 22 26 24 19 17 19 18 19 15
28 28 27 28 29 31 29 23 24 24 22 24 24 21 19 20 23 22 20 18 21 18 19 17 21 23 23 25 25 26 24 25 26 25 25 26 22 25 22 19 22 21 18
26 26 28 28 28 27 27 28 23 22 22 23 23 23 22 20 22 21 20 22 21 20 18 21 20 23 25 25 27 29 27 27 28 27 26 28 24 25 24 25 25 20 20
25 24 23 23 20 21 21 23 25 24 23 22 22 22 21 20 23 24 22 22 22 23 23 21 23 22 25 27 27 27 27 28 28 29 28 28 27 29 27 26 28 25 21
24 23 21 20 20 20 21 21 19 23 24 24 22 22 22 23 24 25 26 24 23 23 22 22 23 25 24 26 27 28 29 29 30 28 28 29 29 32 30 26 28 26 24
26 22 22 21 20 22 21 21 21 21 21 22 24 22 23 23 23 25 26 25 25 22 24 24 23 24 22 28 34 32 29 30 30 30 28 28 31 34 37 37 34 28 28
24 27 26 23 21 21 21 20 20 21 20 19 20 20 22 20 21 24 27 26 25 24 25 27 26 26 25 29 38 42 30 29 30 29 27 27 26 30 29 33 39 38 38
26 25 25 26 25 22 21 20 19 18 17 18 18 17 18 19 20 19 26 23 22 25 26 27 27 27 28 30 35 41 37 29 28 29 29 29 29 29 30 33 31 32 33
23 22 25 26 24 21 21 19 15 14 14 15 16 17 17 17 16 17 14 21 20 19 20 22 23 25 26 27 33 33 29 30 29 27 27 28 30 32 36 33 36 34 35
16 17 25 25 20 23 21 15 14 13 15 16 16 15 13 14 14 13 13 11 13 19 17 18 18 22 24 25 30 31 25 27 27 27 25 30 33 34 36 36 36 35 35
15 13 22 22 21 22 18 16 18 19 18 16 13 14 12 12 13 9 10 12 11 5 11 15 15 16 18 19 18 22 22 23 24 25 23 23 30 39 39 40 38 40 36
15 8 21 20 20 21 19 20 24 20 18 19 17 17 15 16 17 15 16 18 18 14 13 13 13 13 15 15 17 23 25 22 23 25 22 24 29 34 39 40 40 44 38
13 6 16 17 22 22 18 25 28 22 20 21 21 22 20 23 22 23 22 21 18 16 15 15 15 17 17 19 16 20 21 23 24 20 22 27 27 28 29 36 42 40 35
16 17 18 19 23 25 25 23 24 24 21 24 24 23 24 22 23 21 22 23 20 16 18 15 15 16 15 19 20 20 19 18 20 19 22 25 30 31 33 30 32 31 35
14 14 17 19 19 22 24 20 24 24 21 22 23 23 22 23 20 17 20 19 21 21 19 17 13 17 20 22 25 21 18 16 18 20 19 20 21 23 24 25 27 26 27
13 15 17 18 18 21 22 25 20 25 23 21 22 22 20 19 19 17 16 19 18 21 27 22 22 13 21 27 27 23 22 25 13 7 13 17 19 22 24 25 24 21 24
Wind_Direction
180 179 180 175 169 162 165 165 160 160 142 141 154 160 165 132 145 156 156 161 167 169 170 172 176 169 160 171 172 157 154 163 155 132 123 98 163 165 170 174 159 163 176
196 173 172 169 175 171 169 167 167 166 154 155 156 163 166 156 166 177 175 166 171 176 173 170 175 174 161 174 174 160 158 164 159 152 121 154 255 220 204 187 184 190 171
180 164 169 169 171 169 164 167 172 171 160 153 149 152 168 203 159 192 192 190 173 174 179 174 174 175 171 178 179 170 172 169 180 159 151 156 214 188 219 213 195 188 190
182 143 159 163 168 179 170 170 171 166 165 160 167 174 184 201 203 190 193 189 186 179 178 177 180 179 176 180 181 176 175 168 183 188 217 184 147 181 206 229 206 197 194
180 157 157 164 177 176 176 181 179 175 155 169 169 174 188 199 204 188 185 197 198 190 190 182 181 186 179 179 178 178 181 184 187 197 207 229 215 193 152 199 211 211 215
71 69 82 138 174 177 176 176 180 182 162 173 178 180 189 196 200 199 182 195 196 199 190 198 192 192 181 179 181 184 188 189 194 206 213 211 205 214 202 188 201 210 222
56 52 46 39 39 61 181 182 185 181 171 177 181 189 195 195 198 199 194 188 189 195 201 194 192 200 197 185 183 188 195 196 202 204 215 220 219 211 215 210 197 205 209
20 44 43 43 39 32 29 24 354 185 186 187 186 187 194 202 204 202 201 197 195 192 202 202 188 192 196 197 194 199 201 201 208 217 216 218 220 220 223 222 200 208 193
8 20 25 26 27 23 24 21 7 6 197 208 197 195 202 205 210 216 215 202 201 192 198 194 196 188 191 196 195 204 205 207 215 220 225 224 221 220 227 228 222 206 211
1 7 11 11 18 18 11 10 9 0 351 239 201 205 209 212 212 204 208 218 214 195 190 195 198 194 192 196 191 200 205 206 213 217 225 232 233 229 228 231 231 222 221
354 357 0 0 1 9 7 360 356 351 345 343 322 209 219 222 220 213 208 214 220 208 192 195 198 198 198 197 200 205 205 211 216 219 221 226 230 235 236 231 234 238 220
346 351 356 359 359 351 349 352 343 339 335 331 331 334 222 227 226 222 216 214 217 211 211 193 197 201 202 202 210 213 209 207 213 217 218 225 223 228 232 231 233 234 230
348 349 352 353 352 344 336 333 332 326 325 325 321 321 320 239 232 231 221 216 223 217 211 215 205 202 205 206 210 216 213 210 213 217 217 224 219 226 228 230 232 232 231
353 348 344 335 333 329 322 324 317 321 317 316 312 305 303 300 254 230 227 224 217 223 221 214 216 212 206 210 212 216 218 221 222 222 222 223 220 222 226 227 229 229 226
352 348 336 328 326 324 319 311 313 310 310 306 302 299 298 295 295 229 226 223 222 217 220 218 220 218 209 210 210 214 217 220 223 223 221 222 222 225 225 223 227 222 224
352 339 333 334 328 322 316 315 311 303 299 294 293 293 288 283 280 248 223 223 222 221 221 223 216 218 211 211 211 213 217 220 221 224 223 225 225 229 226 224 225 218 218
342 341 339 334 327 318 314 311 306 300 294 290 291 291 288 292 305 261 221 218 217 217 220 225 228 228 221 215 213 214 216 219 222 223 226 230 230 224 225 229 230 226 222
340 340 338 333 329 321 319 312 305 304 306 300 295 298 304 303 305 307 216 214 211 213 217 225 227 230 233 225 222 216 215 221 222 221 223 227 233 226 220 227 230 232 229
335 335 333 328 323 325 317 313 321 322 318 316 310 305 298 298 304 314 291 214 212 214 220 225 225 227 234 229 224 219 220 225 226 225 226 228 232 231 225 224 228 230 231
327 333 337 331 325 331 325 329 344 340 338 329 318 312 318 309 301 304 311 335 235 220 225 235 231 226 230 233 230 222 220 227 228 233 233 233 232 235 232 225 229 231 230
315 342 341 334 330 332 331 356 1 359 347 345 342 353 354 346 347 338 3 8 348 265 247 250 255 251 237 230 229 228 224 230 230 229 234 236 237 239 240 231 230 232 235
331 329 346 340 338 341 354 10 12 357 0 8 12 16 24 31 27 27 31 30 24 27 23 346 283 271 272 251 239 234 227 233 242 254 246 243 240 240 241 240 239 241 237
349 354 356 351 356 0 4 12 11 4 11 20 20 25 28 38 35 34 34 37 29 29 22 22 1 346 342 347 319 288 271 257 251 255 265 273 274 269 260 251 247 239 243
8 3 360 2 10 3 5 23 16 3 21 27 25 27 31 33 38 36 41 42 31 34 28 17 14 353 355 358 343 326 311 312 289 273 274 270 268 269 268 271 260 249 246
16 16 13 3 15 6 5 8 20 15 22 29 30 29 31 32 32 40 43 43 42 37 43 13 16 13 3 350 334 320 313 291 280 288 273 266 263 263 264 262 257 251 239
22 23 20 15 17 15 9 5 21 20 22 31 28 29 29 29 31 30 34 37 37 32 32 28 29 23 12 5 359 360 353 358 337 292 284 271 269 268 263 262 254 236 229